CST,Max TemperatureF,Mean TemperatureF,Min TemperatureF,Max Dew PointF,MeanDew PointF,Min DewpointF,Max Humidity, Mean Humidity, Min Humidity, Max Sea Level PressureIn, Mean Sea Level PressureIn, Min Sea Level PressureIn, Max VisibilityMiles, Mean VisibilityMiles, Min VisibilityMiles, Max Wind SpeedMPH, Mean Wind SpeedMPH, Max Gust SpeedMPH,PrecipitationIn, CloudCover, Events, WindDirDegrees
2012-2-1,70,58,46,37,26,17,57,34,13,30.16,30.06,30.00,10,10,8,13,9,,0.00,0,,266
2012-2-2,77,62,46,56,41,25,87,53,19,30.02,29.83,29.69,10,10,8,23,13,30,0.00,0,,157
2012-2-3,66,56,46,54,32,15,93,48,14,30.07,29.90,29.74,10,10,8,16,10,24,0.00,0,,300
2012-2-4,51,45,39,33,27,23,65,49,33,30.32,30.23,30.10,10,10,10,16,10,16,0.00,7,,14
2012-2-5,46,42,37,28,24,21,65,51,39,30.40,30.32,30.27,10,10,10,15,10,,0.00,8,,55
2012-2-6,60,50,41,33,27,23,65,44,30,30.27,30.12,29.99,10,10,10,17,9,21,0.00,3,,129
2012-2-7,55,45,35,34,31,29,82,60,39,30.36,30.16,29.98,10,10,10,16,12,23,0.00,0,,352
2012-2-8,46,37,28,30,26,23,82,69,48,30.46,30.33,30.20,10,10,10,13,7,,0.00,2,,66
2012-2-9,64,48,33,39,34,28,82,58,34,30.20,30.05,29.94,10,10,8,12,6,,0.00,1,,156
2012-2-10,57,49,41,39,31,24,86,59,28,30.25,30.17,29.99,10,10,9,16,9,,0.00,3,,346
2012-2-11,51,44,37,30,24,16,57,48,42,30.33,30.24,30.16,10,10,10,21,14,26,0.00,2,,96
2012-2-12,37,34,30,34,24,15,96,72,41,30.30,30.17,29.94,10,10,4,17,14,23,0.09,8,Rain,122
2012-2-13,68,49,30,42,31,22,100,66,18,29.98,29.89,29.78,10,6,0,16,7,24,0.00,1,Fog,250
2012-2-14,75,59,43,42,31,24,63,40,15,29.85,29.77,29.67,10,10,10,21,8,29,0.00,2,,216
2012-2-15,66,54,43,43,27,16,74,39,15,30.02,29.93,29.79,10,10,10,20,7,25,0.00,0,,277
2012-2-16,61,48,35,39,31,22,89,54,29,30.14,30.05,29.96,10,10,10,21,9,23,0.00,2,,84
2012-2-17,53,46,39,45,41,37,100,87,66,30.09,30.01,29.91,10,7,1,9,6,,0.00,7,,36
2012-2-18,57,50,44,45,42,35,96,82,44,30.06,30.00,29.90,10,8,2,20,7,26,0.03,6,Rain,314
2012-2-19,68,52,36,42,36,24,93,62,20,30.05,29.89,29.76,10,10,10,24,12,31,0.00,0,,162
2012-2-20,71,56,42,40,21,8,85,35,10,30.06,29.92,29.78,10,10,10,25,12,33,0.00,0,,244
2012-2-21,73,56,39,35,22,14,79,35,11,30.09,30.00,29.90,10,10,10,13,6,,0.00,0,,180
2012-2-22,80,64,48,16,7,-1,22,12,5,29.98,29.83,29.69,10,10,10,26,16,38,0.00,0,,241
2012-2-23,82,68,52,31,17,3,39,16,8,29.88,29.64,29.51,10,10,10,32,17,41,0.00,1,,263
2012-2-24,54,44,34,20,15,12,48,31,19,30.29,30.20,29.98,10,10,10,20,10,18,0.00,0,,41
2012-2-25,66,52,37,28,20,16,45,33,17,30.29,30.13,29.95,10,10,10,23,12,30,0.00,0,,162
2012-2-26,80,60,41,41,31,25,62,36,14,29.94,29.86,29.75,10,10,10,25,14,32,0.00,0,,162
2012-2-27,68,56,45,54,43,32,86,65,37,30.19,30.00,29.87,10,10,10,24,16,37,0.00,2,,192
2012-2-28,87,72,57,54,32,9,78,35,8,30.03,29.84,29.71,10,9,4,32,16,39,0.00,3,,215
2012-2-29,77,62,46,21,15,4,37,19,6,30.06,29.96,29.88,10,10,9,12,6,,0.00,0,,256